This is the latest recevied weather packets stored in our database for station/object KM6YFK-13. If no packets are shown the sender has not sent any weather packets the latest 10 day(s).
| Time | Temp. | Humidity | Pressure | Rain* | Wind** | Luminosity | Snow |
|---|---|---|---|---|---|---|---|
| 1777761807 | 21.67° C | 93% | 1009.7 hPa | 0 mm | - | 49 W/m² | - |
| 1777761507 | 21.67° C | 93% | 1009.8 hPa | 0 mm | - | 52 W/m² | - |
| 1777761207 | 21.67° C | 92% | 1009.8 hPa | 0 mm | - | 52 W/m² | - |
| 1777760907 | 21.67° C | 92% | 1009.7 hPa | 0 mm | - | 56 W/m² | - |
| 1777760607 | 21.67° C | 93% | 1009.8 hPa | 0 mm | - | 69 W/m² | - |
| 1777760307 | 21.67° C | 92% | 1009.6 hPa | 0 mm | - | 63 W/m² | - |
| 1777760007 | 21.67° C | 92% | 1009.5 hPa | 0 mm | - | 75 W/m² | - |
| 1777759707 | 21.67° C | 92% | 1009.3 hPa | 0 mm | - | 91 W/m² | - |
| 1777759407 | 21.67° C | 92% | 1009.5 hPa | 0 mm | - | 84 W/m² | - |
| 1777759107 | 21.67° C | 92% | 1009.1 hPa | 0 mm | - | 76 W/m² | - |
| 1777758808 | 21.67° C | 92% | 1009.1 hPa | 0 mm | - | 90 W/m² | - |
| 1777758507 | 21.67° C | 92% | 1009.1 hPa | 0 mm | - | 103 W/m² | - |
| 1777758207 | 21.67° C | 92% | 1009 hPa | 0 mm | - | 123 W/m² | - |
| 1777757907 | 21.67° C | 92% | 1009 hPa | 0 mm | - | 132 W/m² | - |
| 1777757607 | 21.67° C | 92% | 1008.9 hPa | 0 mm | - | 153 W/m² | - |
| 1777757307 | 21.67° C | 92% | 1009.1 hPa | 0 mm | - | 175 W/m² | - |
| 1777757007 | 21.11° C | 92% | 1008.9 hPa | 0 mm | - | 174 W/m² | - |
| 1777756708 | 21.11° C | 92% | 1008.8 hPa | 0 mm | - | 143 W/m² | - |
| 1777756407 | 21.11° C | 92% | 1008.8 hPa | 0 mm | - | 130 W/m² | - |
| 1777756107 | 21.11° C | 92% | 1008.7 hPa | 0 mm | - | 121 W/m² | - |
| 1777755807 | 21.11° C | 92% | 1008.6 hPa | 0 mm | - | 130 W/m² | - |
| 1777755507 | 21.11° C | 93% | 1009.2 hPa | 0 mm | - | 114 W/m² | - |
| 1777755209 | 21.11° C | 93% | 1009.3 hPa | 0 mm | - | 77 W/m² | - |
| 1777754908 | 21.11° C | 93% | 1009.1 hPa | 0 mm | - | 73 W/m² | - |
| 1777754608 | 21.11° C | 93% | 1009.1 hPa | 0 mm | - | 79 W/m² | - |
* Rain latest hour (hover to see other rain measurements)
** Current wind speed in m/s (hover to see current wind gust speed)